Other Public Products
Issued by NWS Charleston, SC

Current Version | Previous Version | Graphics & Text | Print | Product List | Glossary On
Versions: 1 2 3 4 5 6 7 8 9 10 11 12 13 14 15 16 17 18 19 20 21 22 23 24 25 26 27 28 29 30 31 32 33 34 35 36 37 38 39 40 41 42 43 44 45 46 47 48 49 50
000
FPUS82 KCHS 241427
OPUCHS

TEST...KCHS/KSAV Gateway Observations...TEST
National Weather Service Charleston SC
1000 AM EDT THU MAY 24 2018

NOTE: "fair" indicates few or no clouds below 12,000 feet with no
significant weather and/or obstructions to visibility.

SCZ050-WAZ558-NCZ071-TXZ119-213-PAZ071-DCZ001-FLZ074-172-MI076-
NYZ176-178-MAZ016-IL014-TNZ027-NJZ106-GAZ044-MD014-241500-

...Gateway Observations for Charleston International...

CITY           SKY/WX    TMP DP  RH WIND       PRES   REMARKS
Chas Airport   PTSUNNY   82  72  71 S6        30.11S
Seattle        CLOUDY    55  51  86 S9        30.04R
Charlotte      CLOUDY    75  69  81 NE8G20    30.16S
Dallas DFW     MOSUNNY   77  71  82 S9        30.08R
Dallas Love    MOSUNNY   78  70  76 S8        30.09R
Philladelphia  FAIR      74  51  44 N12       30.16R
Wash National  FAIR      77  52  41 N8        30.19S
Baltimore      FAIR      75  51  43 NE7G17    30.17S
Miami          LGT RAIN  80  75  84 E9        30.08R
Detroit        FAIR      74  55  51 CALM      30.24S
Newark         FAIR      75  41  29 N12       30.13S
Laguardia      FAIR      74  41  30 N10       30.12F
J F K          FAIR      74  40  29 N16       30.13S
Boston Logan   FAIR      59  53  80 E9        30.11S
Ft. Lauderdale PTSUNNY   81  75  82 SE13      30.07S
Chicago O`Hare FAIR      74  54  49 S9        30.19F
Chicago Midway FAIR      74  56  53 S7        30.21S
Houston Bush   FAIR      76  72  87 E6        30.07S
Houston Hobby  FAIR      78  75  90 E8        30.06R
Nashville      PTSUNNY   77  66  68 VRB3      30.15S
Atlanta        PTSUNNY   75  67  76 E6        30.13S

$$

GAZ044-118-TXZ119-213-NCZ071-DCZ001-MDZ014-506-PAZ021-071-NJZ106-
NYZ176-178-MAZ106-OHZ011-021-055-MIZ076-KYZ091-ILZ014-INZ047-
MNZ060-ONZ431-241500-

...Gateway Observations for Savannah International...

CITY           SKY/WX    TMP DP  RH WIND       PRES   REMARKS
Savannah Arpt  PTSUNNY   80  71  74 SW7       30.11S
Atlanta        PTSUNNY   75  67  76 E6        30.13S
Charlotte      CLOUDY    75  69  81 NE8G20    30.16S
Dallas DFW     MOSUNNY   77  71  82 S9        30.08R
Houston Bush   FAIR      76  72  87 E6        30.07S
Wash National  FAIR      77  52  41 N8        30.19S
Wash Dulles    FAIR      74  53  48 N8        30.20S
Baltimore      FAIR      75  51  43 NE7G17    30.17S
Philadelphia   FAIR      74  51  44 N12       30.16R
Newark         FAIR      75  41  29 N12       30.13S
Laguardia      FAIR      74  41  30 N10       30.12F
J F K          FAIR      74  40  29 N16       30.13S
Boston         FAIR      59  53  80 E9        30.11S
Pittsburg      FAIR      69  52  54 CALM      30.24R
Akron          FAIR      71  53  52 CALM      30.26R
Cleveland      FAIR      72  54  53 N5        30.26S
Cincinnati     FAIR      71  57  61 E7        30.23R
Columbus       FAIR      71  56  59 MISG      30.23S
Detroit        FAIR      74  55  51 CALM      30.24S
Chicago O`Hare FAIR      74  54  49 S9        30.19F
Minneapolis    PTSUNNY   78  66  66 S7        30.03F
Indianapolis   FAIR      72  57  59 SE8       30.23S
Toronto Canada SUNNY     68  50  52 SE7       30.18F

$$




USA.gov is the U.S. government's official web portal to all federal, state and local government web resources and services.